Location: Beneden-Haastrecht
(52.0012°N, 4.7557°E)
Time: 03:00:53
(UTC+00:00)

Meteor 2-10 Rocket - Pass Details

Date: 24 October 2020
Orbit: 733 x 885 km, 81.2° (Epoch: 27 November)

Event Time Altitude Azimuth Distance (km) Brightness Sun altitude
Rises 18:09:30 0° 167° (SSE) 3,325 6.7 -16.3°
Reaches altitude 10° 18:12:03 10° 159° (SSE) 2,373 5.8 -16.7°
Maximum altitude 18:16:57 38° 93° (E) 1,171 3.9 -17.5°
Drops below altitude 10° 18:21:42 10° 26° (NNE) 2,304 5.8 -18.2°
Sets 18:24:08 0° 19° (NNE) 3,216 6.6 -18.6°
